Location: ????????
(54.6123°N, 39.2099°E)
Time: 10:27:34
(UTC+00:00)

IKONOS-2 - Pass Details

Date: 19 May 2025
Orbit: 576 x 585 km, 98.2° (Epoch: 13 June)

Event Time Altitude Azimuth Distance (km) Brightness Sun altitude
Rises 18:43:00 0° 15° (NNE) 2,808 8.5 -8.3°
Reaches altitude 10° 18:45:10 10° 15° (NNE) 1,904 7.6 -8.5°
Maximum altitude 18:49:18 86° 288° (WNW) 588 4.5 -8.8°
Drops below altitude 10° 18:53:24 10° 199° (SSW) 1,893 6.7 -9.2°
Sets 18:55:33 0° 199° (SSW) 2,789 7.6 -9.3°
